Wind_Speed
7 7 8 9 9 10 11 12 13 13 13 15 17 18 19 17 15 15 15 16 17 17 16 15 14 14 14 12 11 11 11 11 10 10 10 11 9 8 8 7 6 6 7
4 4 6 7 8 9 10 10 11 10 11 13 15 17 18 17 16 14 15 17 19 18 17 15 14 14 14 14 12 10 9 9 9 10 10 10 10 10 9 7 5 4 4
2 3 4 6 7 8 9 10 10 8 9 11 13 16 18 17 15 14 14 17 18 18 18 16 14 14 14 15 14 12 9 8 8 9 9 9 9 9 9 8 7 4 2
4 5 6 6 7 7 8 9 8 6 6 8 11 13 16 16 15 13 13 15 17 18 18 17 15 14 15 15 15 14 12 8 6 7 7 7 7 7 7 7 7 6 3
7 8 9 9 9 9 8 9 8 6 6 7 9 11 13 14 14 13 13 15 15 16 17 17 17 15 14 15 15 16 16 12 8 7 7 7 5 4 4 5 5 5 4
6 8 9 10 10 10 10 10 10 10 9 10 11 11 11 12 13 13 13 14 14 14 15 16 16 16 15 14 15 16 17 16 12 8 7 8 7 6 5 4 4 3 3
7 8 9 10 11 12 12 13 13 14 13 13 13 12 12 12 13 13 14 15 15 14 14 15 15 16 16 16 16 16 16 16 15 11 8 9 9 7 7 6 5 4 4
8 10 10 11 11 12 13 14 14 14 13 13 12 12 11 12 12 13 14 15 15 16 15 15 16 16 16 15 15 16 15 15 15 14 11 10 10 9 9 8 8 7 6
9 11 12 12 11 11 11 10 11 11 12 12 11 11 11 11 11 11 12 14 15 15 15 16 16 17 17 17 17 16 15 14 15 15 14 12 11 10 11 10 9 9 9
10 12 13 13 11 10 9 9 9 10 10 10 10 10 11 11 11 11 12 13 14 14 14 14 15 16 17 18 19 18 16 15 15 15 15 14 13 12 11 12 12 11 11
11 12 13 13 12 11 11 12 13 13 13 13 14 14 14 14 13 13 13 13 13 13 13 14 15 15 16 17 19 20 19 17 16 15 15 15 14 13 11 11 12 14 14
12 12 14 14 15 15 16 17 18 19 19 20 20 21 20 19 19 17 17 16 15 15 15 16 17 17 18 18 18 19 20 19 18 17 16 15 15 14 12 12 12 13 15
17 17 18 20 21 21 22 23 24 25 25 24 25 26 26 25 25 24 23 22 20 19 18 18 18 19 19 19 18 19 20 20 20 19 19 18 16 14 13 13 13 12 13
22 23 24 26 27 27 27 27 28 29 30 29 29 30 31 30 29 29 29 28 27 26 24 22 22 21 21 21 19 18 19 20 20 20 22 21 19 17 16 15 14 14 14
27 28 28 29 32 33 32 32 32 33 34 35 35 35 35 35 34 33 32 31 30 30 29 27 26 25 25 24 23 20 19 19 21 21 22 24 24 22 21 20 18 16 16
32 33 32 32 34 36 37 37 37 37 38 39 40 40 40 38 37 36 35 33 32 32 31 30 30 29 29 28 28 26 24 22 23 23 23 25 27 27 26 25 23 21 19
36 37 37 37 38 39 40 41 41 41 40 40 40 39 39 39 38 37 37 36 34 34 33 32 33 33 33 32 32 31 31 29 27 26 26 26 28 29 30 29 28 26 24
36 37 38 39 39 40 40 41 41 41 40 40 39 38 38 38 37 37 37 36 36 36 36 36 36 37 38 37 37 36 36 35 34 32 30 30 31 31 32 32 32 31 29
33 34 35 37 38 38 38 38 39 39 39 39 38 38 39 39 38 38 38 38 39 40 39 39 39 40 40 40 40 40 39 39 38 37 36 35 35 34 35 36 35 35 33
34 33 34 35 36 37 37 37 38 39 39 39 39 39 39 39 40 40 41 42 43 43 42 41 41 41 41 40 41 40 39 39 40 39 38 38 38 37 38 38 37 37 36
33 34 34 35 36 38 38 39 39 40 40 40 40 40 40 41 41 41 41 42 42 43 43 43 42 41 40 40 41 40 38 37 37 38 39 39 39 40 40 41 40 38 38
32 33 35 35 35 36 37 38 38 38 38 38 38 38 39 39 39 39 39 40 40 41 41 41 42 41 41 41 42 42 40 38 38 39 40 40 40 41 40 41 41 40 39
33 35 36 36 36 36 37 38 38 38 36 35 36 36 36 36 36 36 37 38 39 40 41 41 42 42 42 42 43 43 42 39 38 37 38 38 37 36 35 36 37 39 38
34 36 36 36 36 37 38 38 39 40 39 39 38 38 38 37 37 38 38 39 40 41 41 42 42 42 42 42 43 43 43 41 39 37 37 36 33 31 31 32 33 35 35
33 34 36 38 39 40 41 41 41 41 42 42 41 41 40 40 40 41 41 42 42 42 42 43 43 43 43 43 43 44 44 43 41 40 37 35 33 31 29 29 31 32 33
31 33 34 37 38 40 42 43 43 43 43 43 42 42 41 41 41 41 42 42 42 43 43 44 45 44 44 44 45 45 45 44 43 41 37 35 34 33 31 29 30 31 32
Wind_Direction
102 85 71 61 50 41 36 33 32 35 38 34 29 24 20 19 19 18 17 17 14 11 13 16 17 15 12 11 20 33 39 41 41 41 45 52 60 67 74 84 100 103 92
95 75 63 54 46 38 33 30 29 32 36 32 27 21 17 16 18 20 18 14 11 9 9 12 16 19 17 11 6 12 25 31 32 31 32 38 46 52 57 66 79 95 91
73 42 35 35 32 32 30 29 28 29 31 28 23 18 15 13 15 17 16 13 10 9 7 7 10 14 16 16 11 4 5 16 21 21 22 28 33 36 40 43 46 53 64
359 352 356 359 5 13 17 17 17 21 22 18 14 13 11 8 8 7 5 5 5 5 6 6 5 8 11 14 16 13 7 2 3 4 4 10 21 21 24 26 29 30 28
358 346 343 343 344 350 357 359 356 353 350 352 356 360 1 359 358 355 354 355 357 357 358 1 3 2 4 6 11 15 15 9 355 343 340 339 349 353 359 5 8 17 22
354 347 346 343 340 339 340 339 337 334 331 333 338 343 346 347 347 346 345 346 347 347 347 349 354 356 357 357 359 6 12 14 6 345 324 315 318 319 319 329 329 336 351
328 324 325 326 327 327 327 327 327 327 328 331 332 335 336 338 339 340 339 338 337 336 334 333 336 343 348 349 350 353 359 5 7 360 335 309 303 302 293 294 298 299 311
315 311 313 313 315 320 325 328 330 332 333 333 332 332 335 337 338 338 338 337 334 328 323 320 320 323 327 332 337 340 344 349 354 357 349 324 306 293 281 281 285 286 286
297 298 301 304 307 312 319 326 331 333 335 337 339 339 338 338 339 337 335 333 332 330 325 319 315 313 313 315 318 321 326 332 337 343 346 342 325 303 287 277 277 279 278
297 297 297 298 298 298 301 307 314 317 319 322 325 327 327 328 327 324 320 319 319 322 324 323 319 315 311 309 307 306 307 311 318 327 335 341 341 326 303 286 277 277 277
297 297 297 295 293 292 292 295 298 300 302 301 301 304 307 309 311 308 305 306 307 308 311 312 313 312 312 309 306 303 299 297 300 307 316 326 333 336 328 307 287 278 277
296 293 293 292 292 293 295 296 297 298 298 295 294 296 298 299 300 299 298 297 298 299 301 303 305 306 306 306 305 303 299 292 287 288 295 304 315 326 329 322 307 290 279
289 288 288 289 291 292 295 296 297 297 297 294 293 294 296 297 297 297 296 294 292 292 292 292 294 298 300 302 302 299 296 292 285 281 281 285 295 306 310 313 311 303 292
287 287 288 290 291 290 291 291 291 292 293 292 292 292 292 293 293 292 292 294 294 292 289 286 284 286 290 293 297 297 292 293 291 284 277 275 277 281 287 293 300 301 298
288 286 286 286 286 287 286 286 286 287 287 288 288 288 288 289 289 289 288 287 287 288 287 286 283 282 284 285 287 290 290 288 286 282 275 271 270 271 274 278 284 289 293
286 285 285 284 283 283 283 283 282 282 283 284 285 286 286 285 285 285 285 284 282 282 282 282 281 281 281 282 282 281 281 280 278 275 272 268 266 266 267 270 274 279 284
285 286 286 286 285 284 283 283 282 281 281 281 282 282 282 280 279 278 277 276 276 277 279 281 280 280 280 280 280 279 277 275 273 270 268 267 266 266 266 265 268 271 276
287 286 285 284 284 284 283 283 283 283 283 282 281 280 279 280 279 278 278 277 276 277 279 280 281 281 280 280 280 279 278 277 275 272 270 268 266 267 267 265 265 266 269
289 286 284 283 283 283 283 282 281 281 281 281 280 280 280 280 278 276 276 277 278 280 281 281 281 281 280 281 281 280 278 277 275 274 272 270 268 267 266 265 264 263 265
295 289 285 282 282 281 281 281 280 280 280 280 280 281 280 279 278 276 274 273 274 277 279 280 281 281 281 282 282 282 280 277 275 275 273 271 270 268 266 264 264 263 263
298 295 290 285 282 282 282 281 281 280 280 280 280 280 279 278 277 276 274 273 273 274 275 276 278 279 280 281 282 282 281 281 279 276 274 272 270 268 266 263 261 261 260
299 299 296 293 290 288 287 286 284 282 281 280 279 279 279 279 278 277 277 276 276 276 277 277 277 279 280 280 281 282 282 282 281 277 275 274 271 269 266 262 258 257 257
297 297 297 295 293 291 290 290 289 288 286 284 282 282 282 282 282 280 279 279 279 279 279 279 279 279 279 279 279 280 281 280 280 277 276 275 272 267 263 260 258 254 253
292 294 294 294 294 293 292 289 288 286 285 284 283 282 283 284 284 284 283 283 283 282 282 280 279 279 278 278 277 278 279 279 280 277 276 274 267 263 261 257 254 252 250
293 295 296 297 297 296 293 290 287 285 284 283 282 281 281 282 282 283 283 283 282 282 282 281 280 280 279 278 277 276 276 276 276 277 275 269 264 259 256 253 251 249 247
304 304 303 301 300 297 295 292 289 286 284 282 282 281 281 280 281 281 282 282 282 281 281 280 280 280 279 278 277 276 275 274 272 273 272 269 264 257 255 252 249 247 245
Height
5932 5931 5931 5931 5931 5932 5932 5932 5932 5931 5931 5930 5929 5928 5926 5925 5923 5922 5921 5919 5917 5916 5914 5912 5910 5908 5907 5905 5904 5903 5902 5901 5901 5900 5899 5898 5897 5895 5895 5894 5894 5894 5894
5934 5933 5933 5933 5933 5933 5934 5933 5933 5932 5932 5931 5930 5929 5928 5926 5925 5923 5922 5921 5918 5916 5915 5913 5912 5910 5908 5907 5905 5904 5903 5902 5901 5900 5899 5898 5897 5896 5895 5894 5894 5894 5894
5935 5935 5935 5935 5935 5935 5935 5934 5934 5933 5933 5932 5931 5930 5929 5927 5926 5925 5923 5922 5920 5917 5916 5914 5913 5911 5910 5908 5906 5905 5904 5903 5902 5901 5900 5899 5897 5896 5895 5894 5894 5894 5894
5937 5937 5937 5937 5936 5936 5936 5935 5934 5934 5933 5932 5931 5930 5929 5928 5926 5925 5924 5923 5921 5919 5917 5915 5913 5912 5910 5909 5907 5906 5904 5903 5902 5901 5900 5899 5898 5897 5896 5895 5894 5894 5894
5938 5937 5938 5937 5937 5936 5936 5935 5935 5934 5933 5932 5931 5930 5929 5928 5927 5925 5924 5923 5921 5920 5918 5916 5914 5912 5911 5909 5908 5907 5905 5904 5902 5901 5900 5899 5898 5897 5896 5895 5895 5895 5894
5937 5937 5937 5937 5936 5936 5935 5935 5934 5933 5932 5931 5930 5929 5928 5928 5926 5925 5923 5922 5921 5919 5918 5916 5914 5912 5911 5909 5908 5907 5906 5904 5903 5901 5900 5899 5898 5898 5896 5895 5895 5895 5894
5936 5936 5936 5936 5935 5935 5934 5933 5933 5932 5931 5930 5930 5929 5928 5927 5926 5924 5923 5921 5920 5919 5917 5915 5914 5912 5911 5909 5908 5907 5906 5905 5903 5901 5900 5898 5897 5897 5896 5895 5895 5894 5893
5935 5935 5934 5934 5933 5933 5932 5932 5931 5930 5929 5928 5928 5927 5926 5925 5924 5923 5921 5919 5918 5917 5915 5914 5912 5911 5910 5908 5907 5906 5906 5905 5903 5901 5900 5898 5897 5896 5896 5895 5894 5893 5892
5934 5933 5933 5932 5932 5931 5931 5930 5929 5928 5927 5926 5926 5925 5924 5923 5921 5920 5919 5917 5915 5914 5913 5911 5910 5909 5907 5906 5905 5904 5904 5903 5902 5901 5899 5897 5896 5895 5894 5894 5893 5892 5891
5933 5932 5932 5931 5930 5929 5928 5927 5926 5925 5924 5924 5923 5922 5921 5920 5919 5917 5916 5914 5912 5911 5909 5908 5907 5905 5904 5903 5902 5901 5901 5900 5900 5899 5898 5896 5895 5893 5892 5892 5892 5891 5890
5932 5931 5930 5929 5928 5928 5927 5925 5924 5923 5922 5921 5920 5919 5918 5917 5915 5914 5912 5911 5909 5907 5906 5904 5903 5901 5900 5900 5898 5897 5897 5897 5896 5896 5895 5894 5893 5891 5891 5890 5890 5889 5888
5930 5929 5928 5927 5926 5925 5924 5923 5922 5921 5920 5918 5917 5916 5914 5913 5912 5910 5908 5907 5906 5904 5902 5900 5899 5897 5896 5895 5894 5893 5892 5892 5892 5891 5891 5891 5890 5889 5888 5888 5888 5887 5886
5928 5926 5925 5924 5923 5922 5921 5920 5918 5917 5915 5914 5913 5911 5910 5908 5907 5905 5903 5902 5901 5899 5897 5896 5894 5893 5892 5891 5890 5889 5888 5887 5887 5887 5886 5886 5886 5885 5885 5885 5885 5884 5883
5925 5923 5921 5919 5918 5917 5916 5914 5913 5911 5909 5908 5906 5905 5904 5902 5901 5899 5897 5895 5894 5893 5891 5890 5889 5888 5887 5886 5885 5884 5883 5882 5882 5882 5882 5881 5881 5882 5882 5881 5881 5881 5880
5919 5918 5918 5915 5912 5910 5909 5908 5906 5904 5902 5901 5899 5897 5896 5894 5893 5891 5890 5889 5887 5886 5885 5883 5882 5880 5880 5879 5878 5878 5878 5877 5877 5877 5877 5876 5876 5877 5877 5876 5876 5875 5875
5910 5910 5910 5909 5906 5903 5902 5901 5900 5898 5895 5893 5890 5888 5887 5885 5884 5882 5880 5880 5879 5877 5877 5876 5874 5873 5872 5872 5871 5871 5871 5871 5871 5871 5870 5870 5870 5870 5871 5871 5870 5870 5869
5901 5900 5899 5898 5896 5894 5892 5890 5889 5887 5886 5884 5882 5880 5878 5875 5873 5872 5870 5870 5869 5867 5867 5867 5866 5865 5864 5864 5863 5863 5863 5863 5863 5863 5863 5863 5862 5863 5863 5864 5864 5864 5864
5893 5891 5889 5887 5885 5883 5881 5879 5877 5875 5874 5873 5871 5870 5868 5866 5864 5863 5861 5860 5859 5858 5857 5857 5856 5856 5855 5855 5854 5853 5853 5853 5854 5854 5854 5854 5854 5854 5855 5856 5857 5857 5857
5884 5882 5879 5877 5875 5873 5871 5869 5867 5865 5864 5862 5861 5859 5858 5857 5855 5854 5853 5851 5850 5849 5848 5847 5846 5845 5845 5844 5844 5844 5844 5844 5843 5844 5844 5844 5844 5845 5846 5847 5848 5849 5850
5876 5874 5872 5869 5866 5864 5862 5860 5858 5856 5854 5853 5852 5850 5848 5847 5845 5844 5843 5842 5840 5839 5838 5837 5836 5835 5835 5834 5833 5833 5834 5833 5833 5834 5834 5834 5834 5835 5835 5837 5838 5840 5841
5869 5866 5864 5861 5859 5856 5854 5851 5849 5847 5845 5843 5841 5840 5838 5836 5835 5833 5832 5832 5831 5829 5828 5827 5827 5825 5825 5824 5823 5823 5823 5822 5822 5823 5822 5822 5823 5824 5825 5826 5828 5830 5832
5863 5860 5856 5853 5850 5847 5844 5841 5839 5837 5836 5833 5831 5829 5827 5826 5824 5823 5822 5821 5820 5819 5819 5818 5816 5815 5815 5814 5813 5811 5812 5814 5813 5812 5812 5811 5812 5813 5813 5815 5817 5819 5822
5857 5853 5849 5846 5842 5839 5835 5832 5829 5827 5825 5824 5822 5820 5818 5816 5815 5813 5812 5810 5809 5809 5808 5808 5806 5805 5805 5804 5802 5801 5800 5802 5803 5803 5801 5801 5801 5801 5802 5803 5806 5808 5811
5850 5846 5842 5838 5834 5831 5828 5825 5822 5819 5816 5814 5812 5811 5809 5807 5805 5803 5802 5801 5799 5798 5797 5797 5796 5795 5794 5794 5792 5791 5791 5791 5791 5792 5793 5791 5791 5791 5792 5793 5796 5798 5801
5843 5838 5834 5830 5826 5822 5819 5816 5813 5810 5807 5805 5803 5801 5800 5798 5795 5794 5792 5790 5789 5787 5786 5785 5785 5784 5783 5783 5782 5781 5780 5780 5780 5781 5782 5783 5782 5782 5784 5785 5787 5790 5793
5834 5830 5825 5821 5817 5813 5809 5805 5802 5799 5797 5794 5792 5791 5789 5787 5786 5783 5781 5779 5778 5777 5775 5774 5773 5772 5771 5770 5770 5769 5769 5769 5770 5770 5771 5772 5772 5774 5776 5777 5779 5781 5784